Simultaneous Nadir Overpasses (SNOs) Predictions

Prediction of SNOs between GOES-17 and METOP-B Satellite Orbit:

Table of predicted SNOs for the next 14.0 days since TLE Epoch: 3/25/2023
Index Date Time (GOES-17) GOES-17 Lat,Lon METOP-B Lat,Lon Distance(km) Time Diff (sec)
1 03/26/2023 16:40:30 -0.02,-104.77 0.68,-107.82 347.50 80
2 03/27/2023 16:22:30 -0.02,-104.77 -0.44,-102.82 222.05 80
3 03/29/2023 04:41:28 0.02,-104.74 -0.58,-107.41 304.64 80
4 03/30/2023 04:18:08 0.03,-104.74 0.55,-102.41 264.87 80
5 03/31/2023 16:36:57 -0.03,-104.77 0.49,-106.96 250.50 80
6 04/01/2023 16:18:57 -0.03,-104.77 -0.65,-101.97 319.37 80
7 04/03/2023 04:37:54 0.03,-104.74 -0.40,-106.55 206.62 80
8 04/04/2023 04:14:33 0.03,-104.75 0.74,-101.56 363.38 80
9 04/05/2023 16:33:22 0.02,-104.78 0.34,-106.10 150.42 80
10 04/06/2023 16:15:21 0.02,-104.79 -0.81,-101.11 419.59 80
